Overview Statistics Trail Chart Weather Telemetry Raw packets
 

This is the latest recevied weather packets stored in our database for station/object W8RSN-13. If no packets are shown the sender has not sent any weather packets the latest 10 day(s).

<< 17 18 19 20 21 22 23 >>
Time Temp. Humidity Pressure Rain* Wind** Luminosity Snow
1788562173 28.89° C 45% 1013.7 hPa - - - -
1788561872 28.89° C 45% 1013.8 hPa - - - -
1788561572 28.89° C 45% 1013.8 hPa - - - -
1788561271 28.89° C 44% 1013.8 hPa - - - -
1788560970 28.89° C 44% 1013.8 hPa - - - -
1788560669 29.44° C 43% 1013.8 hPa - - - -
1788560368 28.89° C 44% 1013.8 hPa - - - -
1788560067 28.89° C 43% 1014 hPa - - - -
1788559766 28.89° C 43% 1014 hPa - - - -
1788559465 28.89° C 43% 1014.1 hPa - - - -
1788559164 28.89° C 42% 1014.1 hPa - - - -
1788558863 28.89° C 43% 1014.2 hPa - - - -
1788558563 28.89° C 42% 1014.1 hPa - - - -
1788558262 28.33° C 43% 1014.3 hPa - - - -
1788557961 28.33° C 43% 1014.3 hPa - - - -
1788557660 28.89° C 42% 1014.1 hPa - - - -
1788557359 28.89° C 42% 1014.3 hPa - - - -
1788557058 28.33° C 42% 1014.5 hPa - - - -
1788556757 28.33° C 42% 1014.5 hPa - - - -
1788556456 28.33° C 42% 1014.6 hPa - - - -
1788556157 28.33° C 43% 1014.5 hPa - - - -
1788555875 28.33° C 42% 1014.5 hPa - - - -
1788555574 28.33° C 42% 1014.6 hPa - - - -
1788555273 27.78° C 43% 1014.6 hPa - - - -
1788554972 28.33° C 43% 1014.6 hPa - - - -

* Rain since midnight (hover to see other rain measurements)
** Current wind speed in m/s (hover to see current wind gust speed)